Location: Rounton
(54.4000°N, 1.3500°W)
Time: 21:12:18
(UTC+01:00)

deb Delta 126 - Pass Details

Date: 03 July 2022
Orbit: 1120 x 1970 km, 101.5° (Epoch: 17 August)

Event Time Altitude Azimuth Distance (km) Brightness Sun altitude
Rises 02:16:55 0° 49° (NE) 4,818 ? -11.3°
Reaches altitude 10° 02:20:54 10° 33° (NNE) 3,973 ? -11.1°
Maximum altitude 02:26:37 18° 356° (N) 3,534 ? -10.9°
Drops below altitude 10° 02:32:42 10° 319° (NW) 4,290 ? -10.6°
Sets 02:37:16 0° 304° (WNW) 5,360 ? -10.4°
